Regional Weather Roundup
Issued by NWS Boston, MA

Current Version | Previous Version | Text Only | Print | Product List | Glossary Off
Versions: 1 2 3 4 5 6 7 8 9 10 11 12 13 14 15 16 17 18 19 20 21 22 23 24 25 26 27
000 ASUS41 KBOX 191110 RWRBOX REGIONAL WEATHER ROUNDUP NATIONAL WEATHER SERVICE TAUNTON MA 700 AM EDT SAT AUG 19 2017 NOTE: "FAIR" INDICATES FEW OR NO CLOUDS BELOW 12,000 FEET WITH NO SIGNIFICANT WEATHER AND/OR OBSTRUCTIONS TO VISIBILITY. MAZALL-191200- EASTERN MASSACHUSETTS CITY SKY/WX TMP DP RH WIND PRES REMARKS BOSTON CLOUDY 65 65 100 N7 29.80R BEVERLY FOG 63 63 100 N5 29.79R VSB 1/4 LAWRENCE FOG 66 64 93 N5 29.83R VSB 1/2 BEDFORD FOG 66 63 90 N5 29.79S VSB 1 BLUE HILL N/A 66 65 96 N9 29.80R NORWOOD LGT RAIN 69 68 96 VRB3 29.79R MARSHFIELD FOG 66 66 100 VRB6G13 29.77R VSB 1/4 PLYMOUTH PTSUNNY 73 72 96 CALM 29.78R FOG TAUNTON CLOUDY 74 72 93 CALM 29.77R FOG NEW BEDFORD CLOUDY 73 72 96 W5 29.77S $$ MAZALL-191200- CAPE COD AND THE ISLANDS CITY SKY/WX TMP DP RH WIND PRES REMARKS FALMOUTH CLOUDY 72 72 100 W6 29.79S FOG HYANNIS CLOUDY 74 74 100 SW6 29.77S FOG CHATHAM CLOUDY 73 73 100 SW6 29.79S FOG PROVINCETOWN FOG 72 72 100 S8 29.77F VSB 1/2 NANTUCKET PTSUNNY 70 70 100 SW7 29.81R FOG MARTHAS VNYRD CLOUDY 74 72 93 W6 29.78S FOG $$ MAZALL-191200- CENTRAL AND WESTERN MASSACHUSETTS CITY SKY/WX TMP DP RH WIND PRES REMARKS WORCESTER FOG 69 67 93 NE5 29.83R VSB 1/4 FITCHBURG CLOUDY 67 65 93 N5 29.82R ORANGE FOG 67 67 100 CALM 29.81R VSB<1/4 SPRINGFIELD PTCLDY 68 67 96 W5 29.79R WESTFIELD PTCLDY 67 67 100 CALM 29.81R FOG NORTH ADAMS FOG 65 65 100 CALM 29.83R VSB 1/4 PITTSFIELD CLEAR 66 62 87 VRB3 29.85R $$ RIZALL-191200- RHODE ISLAND CITY SKY/WX TMP DP RH WIND PRES REMARKS PROVIDENCE CLOUDY 74 74 100 W5 29.79R NEWPORT PTSUNNY 73 73 100 CALM 29.77S FOG BLOCK ISLAND CLOUDY 71 70 96 W12 29.80R WESTERLY NOT AVBL $$ CTZALL-191200- CONNECTICUT CITY SKY/WX TMP DP RH WIND PRES REMARKS BRADLEY INTL PTCLDY 70 67 90 W9 29.81R HARTFORD CLOUDY 73 71 93 W3 29.80R BRIDGEPORT CLOUDY 74 72 93 CALM 29.80S DANBURY PTCLDY 69 69 100 CALM 29.84R FOG GROTON MOCLDY 73 71 93 W7 29.79S NEW HAVEN CLOUDY 74 72 93 W9 29.81R CHESTER FOG 72 72 100 CALM 29.82R VSB<1/4 MERIDEN FOG 69 69 100 CALM 29.81R VSB 1/4 WILLIMANTIC PTCLDY 73 73 100 CALM 29.80R OXFORD PTCLDY 70 69 97 CALM 29.85R $$ MEZ002-015-021-024-NHZ003-005-008-011-012-014-VTZ005-008-191200- NORTHERN NEW ENGLAND CITY SKY/WX TMP DP RH WIND PRES REMARKS PORTLAND ME CLOUDY 61 60 97 VRB5 29.81R BANGOR ME DRIZZLE 60 58 92 N7 29.82R FOG CONCORD NH CLOUDY 63 62 97 CALM 29.82R FOG MANCHESTER NH CLOUDY 64 61 90 NE3 29.80S NASHUA NH CLOUDY 65 65 100 N3 29.82R FOG PORTSMOUTH NH CLOUDY 63 61 94 NW6 29.80R JAFFREY NH FOG 64 64 100 CALM 29.84R VSB 1/4 KEENE NH N/A N/A N/A N/A MISG N/A BURLINGTON VT MOCLDY 69 69 100 CALM 29.77R FOG MT. WASHINGTON FOG 54 54 100 NW17 N/A VSB 1/16 $$ NYZ052-076-191200- EASTERN NEW YORK CITY SKY/WX TMP DP RH WIND PRES REMARKS ALBANY PTCLDY 66 64 93 CALM 29.82R NEW YORK CITY MOCLDY 76 72 87 NW8 29.81R $$ ANZALL-191200- MARINE OBSERVATIONS STATION/POSITION TIME TEMP WIND PRES VSBY WAVE AIR SEA DIR/SP/G HT/PER (UTC) (F) (DEG/KT/KT) (MB) (MI) (FT/S) BOSTON BUOY 1050 64 67 360/ 14/ 16 1008.3R 2/ 3 BUZZARDS BAY 1000 70 240/ 14/ 15 1008.5R NANTUCKET SOUND 1050 71 71 250/ 10/ 12 1008.5R 1/ 3 MASS BAY-STELLWA 1004 63 65 10/ 12/ 14 1007.5R 3/ 6 ISLE OF SHOALS 1000 61 10/ 11/ 12 1008.4R S OF BLOCK IS NOT AVBL $$ ......................KEY......................... SKY/WX - SKY CONDITION/PRESENT WEATHER TMP - TEMPERATURE IN FAHRENHEIT DWPT - DEWPOINT IN FAHRENHEIT RH - RELATIVE HUMIDITY IN PERCENT WIND - DIRECTION AND SPEED IN MPH PRES - MEAN SEA LEVEL PRESSURE IN INCHES OF HG WCI - WIND CHILL INDEX VSB - VISIBILITY IN MILES HX - HEAT INDEX TC - TEMPERATURE IN CELSIUS VRB - VARIABLE WIND DIRECTION N/A - NOT AVAILABLE

USA.gov is the U.S. government's official web portal to all federal, state and local government web resources and services.